Location: Mount Cross
(36.6390°N, 79.4878°W)
Time: 21:50:33
(UTC+00:00)

Vanguard 2 Rocket - Visible Passes

Search period start: 21 March 2023 00:00
Search period end: 31 March 2023 00:00
Orbit: 555 x 3316 km, 32.9° (Epoch: 21 March)

Date Brightness Start Highest point End Pass type
(mag) Time Alt. Az. Time Alt. Az. Time Alt. Az.
21 Mar 8.4 01:01:28 10° SW 01:08:55 48° SSE 01:14:51 29° E visible
21 Mar 8.7 03:13:08 10° WSW 03:20:34 59° WSW 03:20:34 59° WSW visible
21 Mar 10.5 05:56:48 19° ESE 05:56:48 19° ESE 06:00:35 10° ESE visible
21 Mar 9.8 08:02:34 41° S 08:02:34 41° S 08:16:06 10° SSE visible
21 Mar 10.3 10:08:19 16° WSW 10:13:51 18° SW 10:24:41 10° SSW visible
22 Mar 8.5 00:02:09 10° SSW 00:08:12 32° SE 00:17:37 11° E visible
22 Mar 8.3 02:12:47 10° WSW 02:21:36 69° SSE 02:23:19 63° SE visible
22 Mar 9.7 04:25:30 10° W 05:00:09 - ESE 04:29:01 27° W visible
22 Mar 10.2 07:05:55 30° SSE 07:05:55 30° SSE 07:14:10 10° SE visible
22 Mar 10.1 09:11:40 26° SW 09:11:40 26° SW 09:26:02 10° S visible
23 Mar 8.1 01:12:46 10° SW 01:20:09 58° SSE 01:26:00 32° E visible
23 Mar 8.8 03:24:48 10° W 03:31:41 55° WSW 03:31:41 55° WSW visible
23 Mar 10.5 06:09:16 15° SE 06:09:16 15° SE 06:11:27 10° SE visible
23 Mar 10.1 08:15:02 30° S 08:15:02 30° S 08:25:41 10° SSE visible
23 Mar 10.6 10:23:03 10° SW 10:24:36 10° SW 10:26:09 10° SW visible
24 Mar 8.1 00:13:06 10° SW 00:19:14 43° SSE 00:28:36 13° E visible
24 Mar 8.2 02:24:23 10° WSW 02:33:06 74° S 02:34:18 70° SE visible
24 Mar 9.8 04:37:12 10° W 05:12:37 - ESE 04:39:59 23° W visible
24 Mar 10.5 07:18:22 23° SSE 07:18:22 23° SSE 07:24:14 10° SSE visible
24 Mar 10.4 09:24:08 18° SW 09:24:08 18° SW 09:33:24 10° S visible
25 Mar 8.0 01:24:14 10° WSW 01:31:33 67° SSE 01:36:50 36° E visible
25 Mar 8.9 03:36:29 10° W 03:42:31 48° WSW 03:42:31 48° WSW visible
25 Mar 10.6 06:21:40 10° SE 06:21:40 10° SE 06:21:53 10° SE visible
25 Mar 10.4 08:27:26 20° S 08:27:26 20° S 08:34:19 10° S visible
26 Mar 7.8 00:24:20 10° SW 00:30:28 54° SSE 00:39:20 15° E visible
26 Mar 8.2 02:36:02 10° W 02:44:39 74° S 02:45:01 74° SSE visible
26 Mar 10.0 04:48:54 10° W 04:50:42 18° W 04:50:42 18° W visible
26 Mar 10.7 07:30:40 15° SSE 07:30:40 15° SSE 07:33:35 10° SSE visible
27 Mar 7.9 01:35:49 10° WSW 01:43:02 71° S 01:47:28 42° ESE visible
27 Mar 9.1 03:48:10 10° W 03:53:09 39° WSW 03:53:09 39° WSW visible
27 Mar 10.7 08:39:36 12° SSW 08:39:36 12° SSW 08:41:17 10° S visible
28 Mar 7.7 00:35:48 10° WSW 00:41:52 63° SSE 00:49:53 18° E visible
28 Mar 8.2 02:47:41 10° W 02:55:34 69° SSW 02:55:34 69° SSW visible
28 Mar 10.2 05:00:42 10° W 05:01:14 12° W 05:01:14 12° W visible
29 Mar 7.9 01:47:25 10° W 01:54:34 71° S 01:57:58 48° ESE visible
29 Mar 9.3 03:59:52 10° W 04:03:38 30° W 04:03:38 30° W visible
30 Mar 7.6 00:47:20 10° WSW 00:53:21 68° S 01:00:21 22° E visible
30 Mar 8.4 02:59:20 10° W 03:06:02 56° SW 03:06:02 56° SW visible
